GPS BIIR-13

Last updated on Sun Dec 14 2025 00:02:35 GMT+0000 (Coordinated Universal Time)

1 28474U 04045A 25346.50101600 -.00000088 00000+0 00000+0 0 9996 2 28474 55.2408 332.4152 0170757 309.2412 170.6572 2.00569519154688
UTC large
Height (km)
Speed (km/s)
/
Latitude / Longitude
Inclination (degrees)
Orbital Period (minutes)
Azimuth
Elevation
Range (km)
Doppler Factor

Next 0 passes for location: London (51.5072 / 0.1276)

Sorry there are no passes over London.